TimeCST,TemperatureF,Dew PointF,Humidity,Sea Level PressureIn,VisibilityMPH,Wind Direction,Wind SpeedMPH,Gust SpeedMPH,PrecipitationIn,Events,Conditions,WindDirDegrees,DateUTC
12:13 AM,-9.4,-17.7,67,30.26,10.0,West,4.6,-,N/A,,Clear,260,2013-12-30 06:13:00
12:33 AM,-9.4,-17.9,66,30.26,10.0,West,6.9,-,N/A,,Clear,270,2013-12-30 06:33:00
12:53 AM,-8.9,-16.1,71,30.24,10.0,West,5.8,-,N/A,,Clear,270,2013-12-30 06:53:00
1:13 AM,-9.4,-16.8,70,30.24,10.0,WNW,5.8,-,N/A,,Clear,290,2013-12-30 07:13:00
1:33 AM,-9.8,-16.4,72,30.24,10.0,West,4.6,-,N/A,,Clear,270,2013-12-30 07:33:00
1:53 AM,-9.6,-15.3,76,30.24,10.0,West,4.6,-,N/A,,Clear,280,2013-12-30 07:53:00
2:13 AM,-9.8,-15.3,76,30.24,10.0,West,4.6,-,N/A,,Clear,260,2013-12-30 08:13:00
2:33 AM,-10.5,-16.1,76,30.23,10.0,West,3.5,-,N/A,,Clear,270,2013-12-30 08:33:00
2:53 AM,-11.2,-17.5,74,30.22,10.0,West,3.5,-,N/A,,Clear,280,2013-12-30 08:53:00
3:13 AM,-10.5,-16.2,76,30.21,10.0,Calm,Calm,-,N/A,,Clear,0,2013-12-30 09:13:00
3:33 AM,-8.1,-12.8,80,30.21,10.0,Calm,Calm,-,N/A,,Clear,0,2013-12-30 09:33:00
3:53 AM,-9.6,-15.0,77,30.21,10.0,WSW,3.5,-,N/A,,Clear,250,2013-12-30 09:53:00
4:13 AM,-10.1,-15.7,76,30.20,10.0,Calm,Calm,-,N/A,,Clear,0,2013-12-30 10:13:00
4:33 AM,-9.8,-15.5,76,30.21,10.0,Calm,Calm,-,N/A,,Clear,0,2013-12-30 10:33:00
4:53 AM,-9.4,-14.8,77,30.21,10.0,Calm,Calm,-,N/A,,Clear,0,2013-12-30 10:53:00
5:13 AM,-9.9,-15.2,78,30.21,10.0,South,3.5,-,N/A,,Clear,180,2013-12-30 11:13:00
5:33 AM,-11.4,-17.5,74,30.21,10.0,Calm,Calm,-,N/A,,Clear,0,2013-12-30 11:33:00
5:53 AM,-12.3,-18.4,74,30.21,10.0,Calm,Calm,-,N/A,,Clear,0,2013-12-30 11:53:00
6:12 AM,-10.8,-16.6,76,30.21,10.0,Calm,Calm,-,N/A,,Clear,0,2013-12-30 12:12:00
6:33 AM,-11.4,-17.7,74,30.21,10.0,SSE,3.5,-,N/A,,Clear,160,2013-12-30 12:33:00
6:53 AM,-11.7,-17.5,76,30.21,10.0,SSE,3.5,-,N/A,,Clear,160,2013-12-30 12:53:00
7:13 AM,-12.1,-18.2,74,30.21,10.0,Calm,Calm,-,N/A,,Clear,0,2013-12-30 13:13:00
7:33 AM,-12.1,-18.2,74,30.21,10.0,SSE,4.6,-,N/A,,Clear,160,2013-12-30 13:33:00
7:53 AM,-11.7,-17.9,74,30.21,10.0,SE,4.6,-,N/A,,Clear,140,2013-12-30 13:53:00
8:13 AM,-11.6,-18.2,72,30.21,10.0,SSE,3.5,-,N/A,,Mostly Cloudy,150,2013-12-30 14:13:00
8:33 AM,-11.4,-18.0,72,30.21,10.0,SE,3.5,-,N/A,,Mostly Cloudy,140,2013-12-30 14:33:00
8:53 AM,-10.5,-16.8,74,30.21,10.0,SSE,3.5,-,N/A,,Overcast,150,2013-12-30 14:53:00
9:13 AM,-9.0,-15.5,73,30.22,10.0,SE,3.5,-,N/A,,Overcast,140,2013-12-30 15:13:00
9:33 AM,-7.1,-15.3,67,30.22,10.0,SE,3.5,-,N/A,,Overcast,130,2013-12-30 15:33:00
9:53 AM,-6.0,-15.2,65,30.23,10.0,South,4.6,-,N/A,,Overcast,170,2013-12-30 15:53:00
10:13 AM,-5.6,-15.9,61,30.23,10.0,South,4.6,-,N/A,,Overcast,180,2013-12-30 16:13:00
10:33 AM,-4.2,-13.7,64,30.23,4.0,SSE,3.5,-,N/A,,Overcast,150,2013-12-30 16:33:00
10:53 AM,-4.0,-14.3,61,30.23,5.0,SSE,5.8,-,N/A,,Overcast,150,2013-12-30 16:53:00
11:13 AM,-2.9,-12.5,64,30.22,4.0,SE,5.8,-,N/A,,Overcast,140,2013-12-30 17:13:00
11:32 AM,-2.2,-9.9,70,30.21,7.0,SSE,4.6,-,N/A,,Overcast,150,2013-12-30 17:32:00
11:53 AM,-2.0,-10.1,68,30.19,4.0,SSW,6.9,-,N/A,,Overcast,210,2013-12-30 17:53:00
12:13 PM,-0.2,-7.2,72,30.17,3.0,SSE,4.6,-,N/A,,Overcast,160,2013-12-30 18:13:00
12:33 PM,-0.4,-7.8,71,30.16,7.0,SSW,4.6,-,N/A,,Overcast,200,2013-12-30 18:33:00
12:53 PM,-0.4,-7.6,72,30.14,5.0,SE,5.8,-,N/A,,Overcast,140,2013-12-30 18:53:00
1:13 PM,-1.1,-8.1,72,30.13,3.0,ESE,5.8,-,N/A,,Overcast,110,2013-12-30 19:13:00
1:33 PM,-0.4,-6.5,75,30.13,1.2,SE,4.6,-,N/A,,Overcast,130,2013-12-30 19:33:00
1:53 PM,0.9,-5.6,74,30.13,2.0,SSE,3.5,-,N/A,,Overcast,160,2013-12-30 19:53:00
2:13 PM,-0.0,-6.2,75,30.12,1.5,East,5.8,-,N/A,,Overcast,100,2013-12-30 20:13:00
2:33 PM,0.3,-5.6,76,30.13,1.5,ESE,5.8,-,N/A,,Overcast,110,2013-12-30 20:33:00
2:53 PM,0.7,-5.4,75,30.13,1.0,ESE,4.6,-,N/A,,Overcast,120,2013-12-30 20:53:00
3:13 PM,1.2,-4.0,79,30.13,1.0,ESE,4.6,-,N/A,,Overcast,110,2013-12-30 21:13:00
3:33 PM,0.9,-4.7,77,30.14,1.0,Calm,Calm,-,N/A,,Overcast,0,2013-12-30 21:33:00
3:53 PM,1.6,-4.0,77,30.14,1.0,Calm,Calm,-,N/A,,Overcast,0,2013-12-30 21:53:00
4:13 PM,1.0,-4.2,79,30.14,1.2,ESE,4.6,-,N/A,,Overcast,110,2013-12-30 22:13:00
4:33 PM,0.9,-4.2,79,30.13,1.0,ESE,5.8,-,N/A,,Overcast,110,2013-12-30 22:33:00
4:53 PM,0.5,-4.7,79,30.13,2.5,ESE,4.6,-,N/A,,Overcast,120,2013-12-30 22:53:00
5:13 PM,0.9,-4.4,79,30.14,5.0,ESE,4.6,-,N/A,,Overcast,120,2013-12-30 23:13:00
5:33 PM,0.5,-4.7,79,30.15,4.0,ESE,3.5,-,N/A,,Overcast,110,2013-12-30 23:33:00
5:53 PM,0.5,-4.9,78,30.15,2.5,SE,4.6,-,N/A,,Overcast,130,2013-12-30 23:53:00
6:13 PM,0.1,-5.1,79,30.15,2.5,ESE,3.5,-,N/A,,Overcast,110,2013-12-31 00:13:00
6:33 PM,0.5,-4.9,78,30.16,3.0,Calm,Calm,-,N/A,,Overcast,0,2013-12-31 00:33:00
6:53 PM,1.2,-3.8,79,30.16,4.0,Calm,Calm,-,N/A,,Overcast,0,2013-12-31 00:53:00
7:13 PM,0.5,-4.9,78,30.17,4.0,Calm,Calm,-,N/A,,Overcast,0,2013-12-31 01:13:00
7:33 PM,0.7,-4.2,80,30.16,7.0,SE,4.6,-,N/A,,Overcast,130,2013-12-31 01:33:00
7:53 PM,0.7,-3.8,81,30.17,10.0,Calm,Calm,-,N/A,,Overcast,0,2013-12-31 01:53:00
8:13 PM,1.2,-3.3,81,30.17,10.0,Calm,Calm,-,N/A,,Overcast,0,2013-12-31 02:13:00
8:33 PM,1.8,-3.3,79,30.17,10.0,Calm,Calm,-,N/A,,Overcast,0,2013-12-31 02:33:00
8:53 PM,0.5,-4.4,80,30.16,10.0,Calm,Calm,-,N/A,,Overcast,0,2013-12-31 02:53:00
9:13 PM,0.3,-4.5,80,30.16,10.0,Calm,Calm,-,N/A,,Scattered Clouds,0,2013-12-31 03:13:00
9:33 PM,0.3,-4.2,81,30.16,10.0,Calm,Calm,-,N/A,,Clear,0,2013-12-31 03:33:00
9:53 PM,1.4,-3.3,81,30.16,10.0,Calm,Calm,-,N/A,,Mostly Cloudy,0,2013-12-31 03:53:00
10:13 PM,1.8,-2.9,81,30.17,10.0,WSW,4.6,-,N/A,,Overcast,250,2013-12-31 04:13:00
10:33 PM,1.2,-3.5,81,30.17,10.0,West,4.6,-,N/A,,Overcast,260,2013-12-31 04:33:00
10:53 PM,0.3,-3.8,83,30.16,10.0,West,3.5,-,N/A,,Overcast,260,2013-12-31 04:53:00
11:12 PM,1.2,-3.3,81,30.16,10.0,Calm,Calm,-,N/A,,Overcast,0,2013-12-31 05:12:00
11:33 PM,0.5,-4.0,81,30.16,10.0,Calm,Calm,-,N/A,,Overcast,0,2013-12-31 05:33:00
11:53 PM,0.5,-4.0,81,30.15,7.0,WSW,4.6,-,N/A,,Overcast,250,2013-12-31 05:53:00